GEFSNE_500_meanwind_096.txt.gz
Wind_Speed
26 28 29 29 29 30 30 29 30 30 30 29 29 29 30 31 32 33 34 35 37 38 39 40 41 41 42 42 42 42 41 40 39 38 38 38 38 38
26 27 28 29 28 29 28 28 28 28 28 27 28 29 29 30 32 33 35 36 37 38 39 39 40 40 41 40 40 38 37 36 36 36 36 35 35 35
25 25 26 27 27 26 26 25 25 26 27 27 28 29 29 31 33 34 35 36 37 37 38 38 39 39 38 37 35 35 34 34 33 33 33 32 32 32
24 24 24 25 24 24 25 25 25 26 27 28 29 30 31 33 34 35 36 36 37 38 38 38 37 36 35 33 33 32 31 31 30 30 30 30 30 29
24 23 23 23 23 24 25 25 26 27 28 29 30 32 33 34 35 36 36 37 37 37 36 36 34 33 32 31 30 30 29 29 28 28 28 28 27 27
23 22 23 23 24 25 26 26 27 28 29 30 31 32 34 34 35 35 35 35 35 35 34 33 31 30 29 28 28 27 27 26 26 26 26 26 25 25
23 23 23 24 25 26 27 28 28 29 30 31 32 32 33 33 33 34 34 33 33 32 31 29 28 26 26 26 25 24 24 23 23 23 23 22 22 21
23 23 24 25 26 27 28 28 29 29 30 31 31 32 32 32 31 31 31 30 29 28 27 26 24 24 23 23 22 22 21 20 20 20 20 20 19 19
23 24 25 26 26 27 28 28 29 29 30 30 30 30 30 30 29 28 28 26 25 24 23 22 22 21 21 21 20 19 18 18 18 18 17 17 17 17
22 23 24 25 26 27 28 28 28 28 28 28 28 28 27 26 25 25 24 23 22 21 21 21 20 19 19 18 17 16 16 16 16 16 16 15 15 16
22 23 24 25 26 27 27 27 27 26 26 26 26 25 24 24 23 22 21 21 20 20 19 19 18 17 16 15 15 14 14 14 14 14 14 14 15 15
22 23 24 25 25 26 25 25 24 24 23 23 23 23 22 22 21 20 20 19 19 18 17 16 15 15 14 14 13 13 13 13 13 13 13 13 14 15
21 22 23 24 24 23 22 21 21 21 21 21 21 21 20 20 19 19 18 17 17 16 15 14 13 13 12 12 12 12 11 11 11 12 12 13 14 14
19 19 20 20 20 19 19 19 19 20 19 19 19 18 18 18 17 16 16 16 15 14 13 12 11 11 10 11 11 10 10 10 10 11 12 13 13 14
17 17 17 17 17 17 18 18 18 18 17 17 17 17 17 16 15 14 14 14 13 12 11 10 9 9 9 10 9 9 9 9 10 11 12 12 14 15
14 14 14 15 15 15 15 15 15 15 15 15 15 15 14 14 13 12 12 12 10 9 8 7 7 8 8 8 8 8 8 9 9 11 11 13 14 15
12 12 12 12 12 12 13 13 13 13 13 13 13 13 12 12 11 10 10 9 8 7 6 6 6 7 7 7 7 8 8 9 10 11 12 13 14 15
9 9 10 10 10 11 11 12 12 11 11 12 11 11 10 9 8 8 7 7 6 6 5 5 5 6 6 6 7 8 8 9 10 11 13 14 14 15
8 8 8 8 9 9 9 10 10 10 9 9 9 8 8 7 6 5 5 5 5 4 4 4 5 5 6 7 8 8 9 10 10 11 12 13 14 15
6 6 6 7 7 7 7 7 7 7 7 7 7 6 6 5 5 4 5 4 4 4 4 5 5 6 6 7 8 9 9 10 11 12 13 14 14 15
6 6 6 6 6 6 6 6 6 6 6 6 6 5 5 5 5 5 5 4 4 4 5 5 6 6 7 8 9 9 10 10 11 12 13 14 15 16
7 7 7 7 7 7 7 7 7 6 6 6 6 6 6 6 6 5 5 5 5 5 6 6 6 7 8 9 9 10 11 12 12 13 13 14 15 16
10 10 9 9 9 9 9 9 8 8 8 8 8 7 7 7 7 6 6 6 6 7 7 7 7 8 9 10 11 11 12 13 13 13 14 14 15 16

GEFSNE_500_meanwind_102.txt.gz
Wind_Speed
30 30 30 31 32 31 33 33 33 32 32 32 33 33 33 33 34 34 35 35 35 35 36 37 37 38 40 40 41 41 42 42 42 41 39 39 39 38
30 30 31 31 30 30 31 32 32 31 31 31 32 33 32 33 33 33 33 33 34 35 36 37 38 39 40 41 41 41 41 40 39 38 37 36 35 35
29 30 31 30 29 29 30 30 31 32 32 31 31 31 31 31 31 32 33 34 35 36 36 37 38 39 39 40 40 40 39 38 36 35 34 33 32 31
28 29 29 29 28 29 29 29 29 30 30 30 29 30 30 31 33 33 34 35 35 36 37 37 38 38 38 38 38 37 36 35 33 33 32 30 29 29
26 26 26 26 27 27 28 27 27 28 28 28 29 30 31 32 33 33 34 35 35 36 36 36 36 36 36 36 35 34 32 31 30 29 29 28 27 27
25 26 26 25 26 26 26 26 27 27 28 29 30 31 32 33 33 34 34 35 35 35 34 34 34 34 33 32 31 30 29 28 28 27 27 26 25 25
25 25 24 24 24 25 25 26 27 27 29 30 30 31 32 32 33 34 34 33 33 32 32 32 31 31 30 28 27 27 26 26 26 25 25 24 23 23
21 22 22 22 23 24 25 26 28 29 30 30 30 31 31 31 32 32 31 31 30 30 29 29 28 27 26 25 25 25 24 24 24 23 23 22 21 20
20 21 22 22 23 24 25 27 28 28 29 29 30 30 30 30 30 29 28 28 28 27 27 27 26 25 24 24 24 23 23 22 22 21 20 20 19 18
20 20 21 21 22 24 25 25 26 27 27 28 28 28 28 27 26 26 26 26 26 25 25 24 24 23 23 22 22 21 21 20 19 18 18 17 17 16
20 20 20 21 22 22 23 24 25 25 26 26 25 25 25 25 25 25 25 24 24 23 23 22 22 21 21 21 20 20 19 18 17 17 16 15 15 15
18 19 19 20 21 22 23 23 23 23 23 23 23 23 23 22 22 22 22 21 21 21 20 20 20 20 19 19 18 18 17 16 15 15 15 14 15 15
18 18 18 19 20 21 21 21 21 22 21 21 21 21 20 20 19 19 19 19 19 19 18 18 17 17 16 16 15 15 14 14 14 13 13 13 14 14
16 16 17 17 18 18 19 18 18 18 18 18 18 17 17 17 17 17 17 17 17 17 16 16 15 14 14 14 13 13 13 13 12 12 12 13 13 13
12 13 14 14 15 15 15 15 15 14 14 14 14 14 15 15 15 15 15 15 15 14 14 14 13 12 12 12 12 12 12 12 11 12 12 12 12 12
11 12 12 12 12 12 12 12 12 12 12 13 13 13 14 14 14 14 13 13 12 12 12 12 11 10 10 10 11 11 11 11 11 11 11 11 12 12
9 9 9 9 9 9 9 9 9 10 11 11 11 12 12 12 12 12 11 10 10 10 10 9 9 8 8 9 10 10 10 11 11 11 11 11 12 12
6 6 6 6 6 7 7 8 8 9 9 9 10 10 10 10 9 9 9 8 8 8 8 8 7 7 8 9 9 10 10 10 11 11 11 12 12 13
3 4 4 4 4 5 5 6 6 7 7 8 8 8 7 7 7 7 6 6 7 7 7 7 7 8 9 9 9 10 11 11 11 11 12 12 13 14
4 3 3 3 4 4 4 5 6 6 6 6 6 6 6 6 6 6 6 6 7 7 7 7 8 8 9 10 10 11 11 11 12 12 13 13 14 14
7 6 6 5 5 5 5 5 6 6 5 5 5 6 6 6 6 6 6 6 6 7 7 7 8 8 9 10 11 11 12 12 12 13 14 14 15 15
9 8 8 8 8 7 7 7 7 7 6 6 6 6 6 6 6 6 6 6 7 7 8 8 8 9 10 11 12 13 13 13 14 14 15 15 16 16
11 10 10 9 9 9 8 8 8 7 7 7 7 7 7 7 7 7 7 7 8 8 9 9 10 11 12 13 13 14 14 15 16 16 16 16 16 17

GEFSNE_500_meanwind_108.txt.gz
Wind_Speed
32 31 31 31 31 31 31 32 32 32 32 31 31 30 31 32 33 33 32 32 33 34 35 35 35 36 36 36 37 37 37 37 38 39 39 39 39 38
30 29 29 30 30 30 31 31 32 32 31 31 31 30 30 31 31 31 31 32 33 34 34 34 34 34 35 35 36 36 37 37 38 38 38 37 36 35
28 27 26 27 28 29 30 30 30 31 30 30 30 30 30 30 30 30 30 31 32 33 33 33 33 34 35 35 36 36 36 36 36 36 35 34 33 33
25 26 26 26 27 27 27 27 29 29 28 27 28 28 27 27 28 29 30 30 32 32 32 32 33 33 34 34 34 34 35 34 34 33 32 32 31 30
23 24 24 24 24 24 25 24 25 26 25 25 26 26 26 26 27 28 29 30 31 31 32 32 32 32 32 32 33 33 32 31 31 30 29 29 28 28
21 21 20 21 21 22 23 23 23 23 23 23 24 25 25 26 26 28 29 30 30 30 30 30 31 31 31 30 30 30 29 29 28 27 26 26 26 25
20 19 19 19 20 21 22 22 22 22 22 22 23 23 24 25 26 27 28 29 29 28 28 28 29 29 28 28 28 27 27 26 26 25 24 24 24 23
17 17 18 19 19 19 19 19 20 20 21 21 22 23 23 24 26 26 27 27 27 27 27 27 26 25 25 26 26 25 25 24 24 23 23 22 22 21
16 16 16 15 16 16 17 18 18 18 19 19 20 21 23 24 25 25 25 25 25 24 24 24 23 23 23 23 23 23 22 22 21 21 21 21 20 20
14 14 14 14 14 14 14 15 16 17 18 19 20 22 23 23 23 23 23 23 23 22 22 22 21 21 21 21 21 20 20 20 20 19 19 18 18 18
12 12 13 13 13 13 14 15 16 17 18 18 19 20 20 20 20 20 20 21 20 20 20 19 19 19 19 19 18 18 17 18 18 17 17 17 16 16
11 12 11 11 12 12 13 14 15 16 16 16 17 17 17 17 17 18 18 18 18 18 18 17 17 17 17 16 16 16 16 16 16 16 16 16 15 15
10 10 10 10 11 11 11 12 13 14 14 15 15 15 15 15 15 16 16 16 16 16 15 15 15 15 15 14 14 14 14 15 15 15 15 15 14 14
9 9 8 9 10 10 10 11 11 12 12 13 13 13 13 13 13 13 13 13 13 13 13 13 13 13 13 13 13 13 13 14 14 14 14 14 15 15
7 7 7 8 9 9 9 10 10 10 10 10 11 11 11 11 11 11 11 11 11 11 11 11 12 12 12 12 13 13 13 14 14 14 14 14 15 15
5 5 6 6 7 7 7 7 8 8 8 8 8 8 8 9 9 9 10 10 10 10 10 10 10 11 11 11 12 12 13 14 14 15 15 15 15 15
3 4 4 4 4 5 6 6 6 6 6 6 7 7 8 8 8 9 9 9 9 9 9 10 11 11 11 12 12 13 14 14 15 15 15 15 15 16
2 2 3 3 4 4 5 5 5 6 6 7 7 8 8 8 8 9 9 9 9 9 10 11 11 11 12 12 13 13 14 15 15 15 15 15 16 17
5 5 5 5 5 6 6 6 6 7 7 8 8 8 9 9 9 9 9 9 10 10 11 11 12 12 12 13 13 14 15 15 15 16 16 17 17 18
8 8 8 8 8 8 8 8 8 8 8 9 9 9 9 9 9 10 10 10 10 11 11 12 12 13 13 14 14 15 16 16 17 17 17 18 18 19
10 10 10 10 10 10 10 10 9 9 9 10 9 9 9 10 10 10 11 11 11 12 12 13 14 14 14 15 15 16 17 17 18 18 19 19 19 19
12 11 11 11 11 11 11 11 11 10 10 10 10 10 10 11 11 11 12 12 13 13 14 14 15 15 16 16 17 17 18 18 18 19 20 20 20 20
12 12 12 12 12 12 12 12 12 12 11 11 11 11 12 12 12 13 13 14 14 15 15 16 16 16 17 17 18 18 19 19 19 19 19 20 21 21

GEFSNE_500_meanwind_114.txt.gz
Wind_Speed
28 28 28 28 28 28 28 28 28 28 27 27 28 28 28 29 30 30 31 31 32 32 31 32 33 33 33 35 36 36 36 36 36 36 35 35 35 36
26 26 26 27 27 27 27 27 28 27 27 28 28 28 29 30 30 30 31 31 30 30 30 31 32 33 33 33 34 34 33 34 34 33 33 34 34 34
25 25 25 25 25 25 26 27 26 27 28 28 28 28 29 29 29 29 29 28 29 29 29 30 31 31 31 31 32 32 32 32 31 31 32 32 32 32
22 22 22 23 23 24 24 24 25 26 27 26 26 27 26 27 27 27 26 26 27 27 28 28 29 29 30 30 30 30 30 29 29 30 30 30 30 30
20 20 20 20 21 21 22 23 24 24 23 22 21 21 21 23 23 24 24 25 26 26 27 27 27 28 28 28 28 28 28 28 28 28 28 28 28 29
18 17 17 18 19 19 19 19 20 20 18 18 17 18 19 20 20 22 23 23 23 24 25 25 26 26 26 26 26 26 26 26 26 26 26 27 27 26
15 15 15 15 15 15 14 15 15 16 16 16 16 17 17 18 19 20 21 21 21 22 23 24 24 24 24 24 24 24 24 24 24 24 25 25 25 24
14 14 13 13 13 12 12 12 13 13 14 14 15 15 17 18 18 18 18 19 20 21 22 22 22 22 22 22 22 22 22 22 23 23 23 23 22 22
12 11 11 12 12 11 11 12 12 12 13 13 14 15 16 16 17 17 18 18 18 19 20 20 21 20 20 20 20 20 20 20 20 20 20 20 20 19
9 9 9 9 9 10 10 11 11 11 11 12 13 14 14 15 15 15 16 17 17 18 18 18 18 17 17 17 17 18 18 19 18 18 18 18 17 17
7 7 6 7 7 9 9 9 9 10 10 10 11 11 12 12 13 14 14 14 15 15 15 15 14 14 15 16 16 16 16 16 17 17 16 16 16 16
6 7 6 7 7 7 7 7 8 8 8 9 9 10 10 11 11 11 12 12 12 12 12 12 12 13 14 14 14 14 14 15 15 15 15 16 16 16
5 5 5 5 5 5 6 6 6 7 7 7 7 8 8 8 8 8 8 8 9 9 10 10 11 11 12 12 13 13 14 14 15 15 15 16 16 16
4 4 4 4 4 4 4 4 4 4 4 4 4 5 5 5 5 5 6 6 7 8 8 9 9 10 11 12 12 13 13 14 14 15 16 16 16 16
3 3 3 3 3 3 2 1 1 1 2 2 3 3 3 4 4 5 5 6 6 7 8 9 9 10 11 11 12 13 13 14 14 15 16 16 15 15
3 3 3 4 3 3 2 2 1 1 1 2 2 3 3 4 5 5 6 6 7 7 8 9 10 10 11 11 12 13 13 13 14 14 15 15 16 16
5 5 5 5 5 5 4 4 4 4 4 5 5 5 5 5 5 6 6 7 7 8 9 10 10 11 11 11 13 13 13 13 14 15 15 16 16 17
8 8 8 7 7 7 7 7 7 7 7 6 6 6 6 7 7 7 7 8 9 9 10 11 11 12 12 13 14 14 14 14 15 16 16 16 17 18
10 10 10 10 10 10 9 9 8 8 7 7 7 7 7 7 7 8 8 9 10 10 11 12 12 13 14 15 15 15 16 16 16 17 17 18 18 19
13 13 13 12 11 11 10 10 9 9 8 8 8 8 8 8 8 9 9 10 11 11 12 13 13 14 14 15 16 17 17 17 18 18 18 19 19 20
14 14 13 13 12 12 11 11 10 10 10 9 9 9 9 9 9 10 10 11 11 12 13 14 14 15 16 16 17 18 19 19 19 20 20 20 21 21
15 14 13 13 13 12 12 12 11 11 11 10 10 10 10 11 11 11 11 12 12 13 14 15 16 16 17 18 19 19 20 21 22 22 23 23 23 23
15 14 14 13 13 13 13 12 12 12 11 11 11 11 11 11 11 12 12 13 13 14 15 16 17 18 19 20 20 20 21 22 23 24 25 26 26 26